Location: Santa Giusta
(39.8800°N, 8.6069°E)
Time: 17:13:59
(UTC+00:00)

Meteor 2-12 Rocket - Pass Details

Date: 02 February 2023
Orbit: 935 x 957 km, 82.5° (Epoch: 31 March)

Event Time Altitude Azimuth Distance (km) Brightness Sun altitude
Rises 18:02:53 0° 354° (N) 3,617 7.5 -15.1°
Reaches altitude 10° 18:05:24 10° 357° (N) 2,665 6.7 -15.6°
Maximum altitude 18:11:29 72° 81° (E) 988 4.3 -16.7°
Drops below altitude 10° 18:17:30 10° 166° (SSE) 2,638 6.7 -17.8°
Sets 18:19:58 0° 168° (SSE) 3,577 7.4 -18.3°
